Overview Statistics Trail Chart Weather Telemetry Raw packets
 

This is the latest recevied weather packets stored in our database for station/object S56OA-13. If no packets are shown the sender has not sent any weather packets the latest 10 day(s).

<< 1 2 3 4 5 >>
Time Temp. Humidity Pressure Rain* Wind** Luminosity Snow
1788627534 25° C 43% 897.1 hPa - - - -
1788625732 26.67° C 43% 901.6 hPa - - - -
1788623931 31.11° C 42% 920 hPa - - - -
1788622130 32.78° C 41% 925.3 hPa - - - -
1788620329 30.56° C 42% 919.9 hPa - - - -
1788618527 30° C 42% 915.6 hPa - - - -
1788616727 31.67° C 44% 923.7 hPa - - - -
1788614925 36.67° C 41% 941.7 hPa - - - -
1788613124 34.44° C 42% 934.9 hPa - - - -
1788611322 33.33° C 41% 929.4 hPa - - - -
1788609565 32.78° C 41% 925.4 hPa - - - -
1788609522 32.78° C 41% 925.4 hPa - - - -
1788607720 30° C 41% 916.7 hPa - - - -
1788605919 30.56° C 41% 916.6 hPa - - - -
1788604118 28.89° C 42% 909.5 hPa - - - -
1788602316 29.44° C 41% 910.8 hPa - - - -
1788600562 31.11° C 41% 917.4 hPa - - - -
1788600515 31.11° C 41% 917.4 hPa - - - -
1788598714 31.67° C 40% 917.8 hPa - - - -
1788596913 30° C 40% 911.6 hPa - - - -
1788595101 29.44° C 40% 909.4 hPa - - - -
1788593300 28.33° C 40% 905 hPa - - - -
1788591498 26.67° C 40% 900.2 hPa - - - -
1788589697 25.56° C 39% 894.6 hPa - - - -
1788587895 22.78° C 40% 886 hPa - - - -

* Rain since midnight (hover to see other rain measurements)
** Current wind speed in m/s (hover to see current wind gust speed)